Kezdőlap
METAR-TAF:

METAR-TAF

Repülőterek :

Eureka, Nunavut, Kanada

földrajzi szélesség: 79-59N, földrajzi hosszúság: 085-56W, magasság: 10 m

Jelenlegi meteorológiai megfigyelések

A jelentés 48 perccel ezelõtt készült, 01:00 UTC
Dél-délkeleti szél 10 kt
Hőmérséklet 1°C
Páratartalom 86%
Légköri nyomás 1016 hPa
Látótávolság: 24.1 km
Szakadozott felhőzet 9500 lábon

METAR: CWEU 020100Z 15010KT 15SM BKN095 01/M01 A2999 RMK AC7 SLP167

Idő: 20:48 (01:48 UTC)


TAF: hiányzik

Meteorológiai megfigyelések és előrejelzések több, mint 4000 repülőtéren (METAR és TAF jelentéseket).

A térképen piros és sárga pontok jelzik az elérhető meteorológiai állomásokat.

Mozgassa az egeret a pont fölött, hogy megjelenjen az állomás neve.

Azután kattintson az időjárási megfigyelések és előrejelzések megtekintéséhez.

A térkép megváltoztatása: kattintson a fekete keresztel jelölt zöld gombra ráközelítéshez, a vonallal jelölt zöld gombra távolításhoz, vagy a zöld nyilakra a szomszédos térképek eléréséhez.


METAR-TAF: